{"data":{"norad_id":53537,"epoch":"2026-09-20T13:46:20.820576Z","epoch_age_seconds":71857,"freshness":"FRESH","line1":"1 53537U 22101L   26263.57385209 -.00017153  00000+0 -49906-3 0  9996","line2":"2 53537  53.1638 269.0878 0001102 125.5045 234.6060 15.34313977225729","mean_motion":15.34313977,"eccentricity":0.0001102,"inclination_deg":53.1638,"raan_deg":269.0878,"arg_perigee_deg":125.5045,"mean_anomaly_deg":234.606,"bstar":-0.00049906,"rev_number":22572,"period_min":93.853019759071,"perigee_km":462.20504186575,"apogee_km":463.71281940886,"semimajor_km":6841.0959306373,"source":"CELESTRAK","updated_at":"2026-09-21T09:00:32.900765Z"}}